Vorticity
8 5 6 6 11 16 13 10 11 18 26 18 10 6 6 7 18 22 19 18 14 10 18 10 15 7 10 7 15 18 -6 29 14 47 20 -14 -18 13 3 -18 8 18 11 6 -8 -55 -20 33 30 4 16 24 10 -10
3 5 7 15 12 17 22 19 19 15 16 12 13 10 11 18 11 23 22 19 21 26 53 14 26 25 60 -5 2 30 31 12 -1 -41 50 6 24 46 44 39 50 21 13 26 23 10 23 -18 -18 -19 -13 -12 -5 10
7 8 15 12 15 10 8 11 18 4 25 14 21 20 24 19 23 17 6 12 14 6 23 12 7 16 21 46 -45 39 15 40 -9 51 28 11 -16 -15 35 32 -16 -4 18 35 -25 -1 41 23 -4 1 8 22 55 14
7 12 17 12 4 6 7 11 12 38 25 33 30 7 19 12 24 21 9 10 -3 10 25 4 9 19 27 1 24 -2 -11 -1 45 -25 32 8 18 14 -1 21 26 19 9 20 4 -4 -5 -6 41 19 25 -42 6 13
11 18 12 13 8 7 18 2 31 21 43 43 9 5 7 10 6 23 8 16 1 -0 14 16 4 18 15 14 -14 4 -5 0 -25 2 15 22 -6 15 -10 4 21 16 25 3 -2 29 43 52 1 23 28 17 0 3
18 12 11 13 8 7 16 3 21 12 6 11 10 9 13 19 6 4 8 9 9 9 13 14 21 18 18 -5 8 18 6 10 -4 -3 16 -0 10 2 28 42 10 26 20 16 32 -23 8 10 8 -3 16 33 6 12
13 11 8 15 8 13 14 5 11 19 18 5 8 10 17 17 11 20 18 11 10 5 2 3 11 -2 3 12 9 10 23 15 9 18 9 12 11 17 38 10 -2 2 28 28 -13 33 3 -0 7 1 5 26 16 24
12 11 12 13 8 17 11 10 8 11 12 7 4 6 10 17 23 35 -4 19 12 13 8 6 2 13 5 1 14 -0 9 9 6 4 2 20 29 31 14 10 -2 15 5 11 4 14 15 5 10 -7 30 31 19 26
13 12 14 11 26 18 10 10 9 10 15 8 13 24 20 18 29 16 6 7 4 3 5 33 39 28 -4 33 34 13 8 26 3 19 19 23 22 5 -7 2 9 1 13 13 6 17 10 16 22 2 31 21 11 14
22 19 18 19 16 13 8 12 14 14 20 23 17 19 20 18 17 13 23 30 35 22 18 26 8 8 25 9 14 19 2 -4 20 27 16 20 27 20 9 20 28 17 22 21 7 21 11 25 -12 25 13 22 28 19
18 17 7 18 13 14 8 16 19 15 13 19 23 22 14 12 9 8 14 12 14 26 19 12 4 4 2 12 8 5 10 -2 0 19 6 16 31 26 35 38 32 6 8 13 10 11 -1 12 28 26 27 15 12 7
19 3 10 20 13 13 11 26 15 19 15 21 -8 10 11 8 3 20 13 4 0 0 -2 7 6 15 14 6 9 8 4 16 19 10 13 -1 7 21 26 16 22 16 13 28 16 12 20 13 25 16 13 13 10 6
6 -3 12 18 16 5 24 16 13 20 18 -3 5 2 35 13 19 -13 3 14 17 13 9 14 23 26 15 17 19 19 16 9 15 13 13 -1 19 27 36 13 12 -1 1 7 15 4 7 19 18 15 12 3 5 4
-2 7 20 18 6 10 22 9 26 3 -5 -9 19 27 13 10 -4 11 -5 8 4 20 22 9 11 17 22 14 1 4 8 1 -7 4 9 15 20 29 11 17 19 17 17 10 7 2 16 17 11 6 7 5 3 4
11 12 15 19 1 19 19 20 7 -3 -2 1 1 28 11 -2 -3 13 16 7 30 26 9 5 18 6 6 6 2 4 11 14 17 24 4 11 18 23 30 15 10 4 3 4 8 12 16 15 4 8 3 4 5 7
8 12 21 7 2 20 19 15 7 6 -2 1 16 11 5 5 13 11 15 14 18 13 9 7 11 18 16 13 12 14 13 10 10 11 14 15 15 18 21 13 13 14 10 5 16 15 10 6 5 3 4 5 7 9
26 23 14 4 18 22 13 8 21 -1 -12 7 11 -0 7 7 11 9 9 7 9 7 5 4 7 7 2 7 8 13 11 9 16 13 15 18 10 13 21 22 14 16 21 23 9 10 8 4 4 4 7 9 8 8
18 15 5 14 19 12 17 19 5 5 8 8 2 4 12 15 11 9 7 6 6 8 7 5 2 7 11 11 6 5 10 11 13 11 15 19 15 14 11 12 21 23 19 13 6 4 5 5 7 9 8 8 7 6
10 11 24 17 23 20 26 31 -3 -0 11 3 -4 14 12 10 8 5 7 4 3 5 3 9 10 9 7 7 8 6 9 13 16 12 21 15 11 12 13 8 5 6 7 7 6 5 7 9 8 6 6 5 5 5
9 -1 2 4 2 5 8 23 15 24 19 13 16 9 6 7 8 3 1 2 4 2 7 12 11 10 6 7 10 13 13 17 20 15 17 9 10 10 9 4 7 8 6 7 9 10 8 6 4 5 5 5 5 4
6 4 4 2 6 7 12 4 7 7 3 4 6 4 3 2 2 3 3 4 6 10 12 10 11 10 7 6 8 18 17 17 18 16 13 9 9 11 6 2 5 7 8 7 5 4 4 4 5 6 4 8 4 4
7 7 5 11 12 15 7 10 2 7 2 2 0 0 2 3 3 4 7 10 12 11 8 8 9 11 10 8 8 15 15 15 13 20 10 10 10 10 1 4 11 13 8 4 2 1 2 4 5 6 7 4 6 14
4 5 3 8 7 8 11 6 8 10 6 3 1 3 5 7 8 7 8 10 9 8 6 7 7 8 9 10 11 13 12 11 19 10 8 8 9 8 6 6 8 5 4 4 4 5 5 5 7 6 7 7 21 18
5 3 3 3 3 3 6 6 8 7 10 13 7 9 7 8 9 8 8 10 9 8 6 5 6 8 10 13 16 18 13 14 12 16 5 6 8 7 7 6 8 6 7 8 8 8 7 7 6 7 14 26 13 4
9 10 11 12 11 8 8 10 9 9 8 6 6 6 7 7 6 5 7 10 9 9 11 13 14 15 17 19 19 17 11 12 14 10 11 9 8 5 7 6 7 7 7 8 7 6 5 10 8 23 23 7 5 4
3 1 2 4 6 8 9 10 12 13 13 14 14 15 14 14 13 13 15 15 15 13 16 16 17 14 16 13 11 13 18 20 16 11 4 6 4 3 8 14 10 8 8 6 8 9 7 18 25 16 5 6 5 7
26 30 31 26 18 12 9 6 4 5 4 4 5 7 9 12 13 14 15 11 9 10 8 15 15 12 9 12 15 13 11 4 8 15 13 13 15 17 15 8 4 9 11 7 8 18 23 19 9 5 7 5 6 6
7 8 11 15 17 19 21 24 26 28 28 22 13 8 6 5 3 5 7 12 16 14 11 7 5 12 16 13 8 6 10 11 11 11 11 10 6 5 9 10 8 8 9 14 20 20 11 7 5 9 4 6 2 4
10 8 8 8 9 10 10 11 11 12 16 17 19 22 27 30 18 10 6 6 7 7 10 13 15 11 11 8 12 16 16 13 14 15 13 9 8 8 7 7 9 14 20 19 13 6 6 8 8 9 0 4 4 5
11 10 11 10 8 9 9 7 9 10 11 13 14 14 19 23 23 24 23 18 12 6 6 7 10 12 16 17 10 7 5 5 5 6 4 10 8 6 10 15 19 19 15 10 3 9 8 10 6 6 1 2 7 6
12 12 12 13 13 10 10 10 10 9 9 10 12 12 24 25 26 27 28 19 19 18 14 10 6 6 12 12 14 17 18 17 15 12 9 9 11 12 20 20 17 11 8 1 10 9 9 7 5 4 4 7 9 6
14 12 12 14 14 11 12 13 13 11 9 11 15 16 21 25 29 30 35 31 19 20 19 14 14 11 10 9 14 12 8 10 15 8 2 7 11 24 22 12 7 6 1 8 11 9 7 6 6 3 8 10 7 9
16 14 13 11 11 12 12 13 14 14 9 10 15 19 23 26 28 28 33 33 33 16 18 20 8 15 14 10 9 9 11 15 10 20 22 16 27 21 9 7 6 5 7 10 10 8 6 3 5 8 6 7 4 12
Height
5416 5418 5419 5420 5420 5420 5420 5420 5420 5420 5420 5420 5421 5422 5423 5425 5427 5429 5433 5434 5434 5436 5445 5444 5449 5451 5456 5459 5462 5473 5474 5479 5481 5483 5486 5490 5488 5498 5500 5504 5509 5510 5512 5516 5517 5509 5516 5533 5534 5533 5535 5535 5542 5545
5410 5411 5411 5411 5411 5411 5410 5410 5410 5410 5410 5410 5411 5412 5414 5416 5419 5421 5425 5426 5428 5429 5434 5435 5438 5441 5446 5452 5455 5459 5467 5471 5472 5474 5476 5482 5481 5482 5486 5488 5497 5498 5501 5504 5507 5506 5512 5521 5523 5524 5523 5524 5530 5531
5403 5403 5403 5404 5403 5403 5403 5402 5401 5400 5399 5398 5400 5403 5405 5408 5411 5415 5418 5421 5424 5426 5428 5430 5433 5436 5440 5442 5445 5455 5461 5464 5467 5468 5469 5472 5472 5475 5476 5480 5485 5488 5493 5492 5493 5499 5502 5507 5511 5508 5511 5514 5514 5516
5395 5395 5396 5397 5397 5397 5396 5396 5393 5390 5388 5388 5391 5396 5400 5403 5406 5410 5414 5416 5419 5422 5423 5427 5429 5431 5433 5438 5442 5446 5448 5453 5459 5460 5461 5464 5467 5469 5470 5472 5472 5478 5482 5484 5486 5488 5490 5495 5498 5495 5494 5502 5503 5504
5387 5388 5389 5390 5390 5391 5390 5390 5387 5385 5384 5384 5387 5392 5397 5400 5403 5406 5409 5412 5415 5419 5421 5423 5426 5431 5434 5437 5441 5444 5447 5448 5449 5448 5453 5457 5461 5460 5463 5463 5466 5471 5473 5475 5476 5481 5480 5483 5485 5487 5486 5488 5491 5494
5379 5381 5382 5383 5384 5385 5385 5386 5384 5384 5385 5386 5389 5392 5395 5397 5400 5403 5406 5409 5412 5415 5418 5421 5423 5427 5431 5434 5438 5440 5442 5445 5445 5447 5450 5452 5454 5451 5451 5454 5461 5464 5462 5464 5470 5474 5471 5476 5477 5477 5479 5480 5482 5484
5372 5374 5376 5377 5379 5380 5381 5382 5382 5382 5384 5386 5388 5391 5392 5394 5396 5399 5403 5406 5409 5411 5414 5417 5421 5424 5427 5430 5435 5438 5439 5442 5442 5441 5444 5445 5448 5444 5442 5446 5457 5455 5456 5460 5461 5460 5465 5468 5468 5470 5471 5470 5471 5472
5366 5368 5370 5372 5374 5376 5377 5379 5381 5381 5383 5385 5386 5388 5389 5390 5392 5396 5399 5402 5406 5408 5410 5413 5417 5420 5423 5425 5428 5431 5434 5435 5435 5438 5439 5438 5438 5436 5434 5444 5448 5450 5451 5454 5451 5455 5458 5458 5460 5463 5464 5463 5463 5465
5360 5363 5365 5367 5370 5372 5374 5376 5378 5380 5381 5383 5384 5385 5386 5389 5391 5394 5397 5400 5403 5407 5407 5408 5410 5412 5414 5420 5422 5427 5428 5428 5431 5429 5432 5429 5430 5426 5434 5439 5441 5443 5444 5445 5444 5450 5452 5454 5457 5456 5455 5457 5459 5462
5355 5358 5361 5364 5367 5369 5372 5374 5376 5379 5381 5382 5384 5385 5387 5389 5391 5395 5399 5400 5401 5403 5405 5406 5408 5409 5415 5420 5422 5424 5424 5425 5423 5426 5424 5422 5424 5427 5427 5429 5431 5434 5436 5438 5443 5446 5448 5449 5449 5448 5448 5452 5456 5458
5351 5355 5359 5362 5365 5368 5371 5373 5376 5379 5381 5384 5386 5388 5391 5393 5395 5397 5399 5401 5403 5405 5405 5407 5409 5412 5415 5419 5421 5420 5421 5420 5419 5421 5420 5419 5419 5420 5420 5420 5422 5426 5430 5433 5436 5439 5442 5442 5443 5445 5448 5450 5453 5454
5348 5353 5357 5360 5363 5367 5370 5373 5376 5379 5382 5386 5389 5391 5393 5395 5397 5399 5400 5402 5404 5406 5410 5411 5413 5414 5415 5416 5418 5418 5418 5417 5417 5418 5416 5414 5415 5415 5416 5417 5419 5422 5426 5430 5434 5436 5437 5438 5441 5443 5446 5449 5450 5451
5347 5352 5356 5360 5364 5368 5370 5372 5376 5379 5384 5388 5390 5393 5395 5398 5398 5400 5403 5406 5407 5409 5412 5413 5414 5414 5414 5415 5415 5415 5415 5416 5415 5414 5414 5413 5413 5412 5414 5415 5418 5421 5425 5428 5430 5433 5435 5437 5440 5442 5444 5446 5446 5448
5347 5353 5357 5362 5366 5368 5370 5374 5379 5383 5387 5390 5392 5394 5397 5399 5401 5403 5406 5408 5408 5409 5410 5411 5413 5413 5414 5415 5415 5415 5414 5414 5413 5414 5414 5412 5411 5411 5412 5414 5417 5420 5423 5426 5428 5431 5433 5435 5437 5440 5441 5442 5443 5445
5350 5356 5360 5364 5367 5370 5373 5376 5381 5385 5388 5390 5394 5397 5399 5400 5402 5405 5406 5407 5408 5408 5409 5411 5412 5414 5414 5414 5414 5414 5414 5413 5413 5413 5411 5411 5409 5409 5410 5413 5415 5418 5421 5424 5426 5429 5431 5434 5436 5437 5438 5440 5441 5442
5356 5359 5363 5367 5370 5372 5376 5380 5384 5388 5391 5392 5396 5399 5400 5402 5403 5404 5405 5407 5408 5409 5410 5412 5413 5414 5414 5414 5414 5414 5413 5413 5412 5410 5409 5408 5408 5409 5410 5412 5415 5417 5420 5423 5425 5427 5430 5432 5433 5434 5436 5437 5437 5437
5361 5365 5368 5371 5374 5377 5381 5385 5389 5392 5394 5397 5399 5401 5403 5404 5405 5406 5407 5408 5409 5410 5411 5412 5412 5413 5413 5413 5412 5412 5411 5410 5410 5410 5409 5408 5408 5408 5409 5411 5413 5416 5418 5420 5423 5425 5428 5429 5430 5431 5432 5433 5433 5433
5368 5372 5375 5377 5380 5383 5386 5389 5393 5397 5400 5402 5402 5403 5404 5404 5405 5406 5408 5409 5410 5410 5411 5411 5411 5412 5411 5411 5411 5410 5409 5408 5408 5408 5407 5407 5408 5409 5410 5411 5413 5415 5417 5420 5422 5424 5425 5426 5427 5428 5428 5429 5428 5427
5379 5380 5381 5383 5386 5389 5392 5395 5397 5398 5400 5401 5403 5403 5404 5405 5406 5407 5408 5409 5409 5410 5410 5410 5410 5410 5409 5409 5408 5408 5407 5405 5405 5405 5405 5406 5408 5409 5410 5412 5414 5415 5417 5419 5420 5421 5422 5423 5424 5424 5424 5423 5422 5421
5384 5386 5388 5389 5392 5394 5396 5397 5398 5399 5401 5402 5402 5403 5404 5404 5406 5406 5407 5407 5408 5408 5408 5409 5408 5407 5406 5406 5405 5404 5402 5401 5401 5402 5403 5404 5406 5407 5409 5411 5412 5414 5415 5416 5417 5418 5419 5419 5419 5419 5418 5418 5416 5414
5393 5394 5394 5394 5395 5396 5397 5398 5398 5399 5399 5400 5401 5402 5403 5404 5404 5404 5405 5405 5405 5405 5404 5403 5403 5403 5402 5402 5401 5400 5399 5398 5398 5398 5400 5402 5404 5406 5407 5408 5410 5411 5412 5413 5414 5414 5415 5415 5415 5413 5412 5410 5408 5406
5397 5398 5399 5399 5400 5400 5400 5400 5400 5400 5401 5401 5401 5400 5401 5401 5401 5401 5401 5401 5401 5400 5399 5398 5398 5397 5397 5396 5396 5396 5396 5395 5395 5396 5398 5399 5401 5403 5404 5405 5406 5407 5408 5409 5409 5410 5410 5409 5407 5406 5404 5402 5400 5396
5399 5400 5400 5399 5400 5401 5402 5400 5400 5399 5398 5399 5398 5397 5397 5397 5397 5396 5396 5396 5394 5392 5393 5392 5391 5391 5391 5390 5390 5390 5390 5391 5391 5392 5394 5395 5397 5398 5399 5401 5402 5403 5403 5404 5403 5403 5402 5401 5399 5397 5395 5392 5390 5387
5399 5398 5397 5396 5397 5397 5397 5397 5395 5394 5393 5392 5391 5391 5390 5390 5389 5388 5389 5390 5387 5385 5385 5384 5383 5383 5383 5383 5382 5383 5384 5385 5386 5387 5388 5390 5391 5393 5394 5394 5395 5396 5396 5396 5395 5394 5393 5392 5390 5388 5386 5383 5381 5378
5395 5395 5394 5392 5391 5390 5389 5388 5387 5386 5386 5384 5383 5383 5382 5381 5379 5379 5380 5380 5378 5376 5375 5376 5375 5375 5375 5375 5375 5375 5376 5378 5379 5380 5382 5383 5384 5385 5386 5386 5387 5387 5387 5387 5386 5385 5384 5382 5380 5378 5376 5374 5372 5369
5389 5389 5388 5386 5385 5384 5383 5382 5380 5378 5377 5375 5374 5373 5372 5371 5370 5370 5370 5369 5368 5367 5366 5366 5366 5366 5366 5367 5367 5368 5369 5369 5371 5372 5374 5375 5376 5377 5377 5378 5378 5378 5378 5377 5377 5375 5374 5372 5370 5369 5367 5365 5362 5359
5382 5380 5379 5377 5376 5374 5373 5372 5370 5368 5367 5366 5365 5363 5361 5359 5359 5360 5358 5357 5358 5357 5357 5357 5357 5357 5358 5359 5359 5359 5360 5361 5363 5364 5364 5366 5367 5368 5368 5369 5369 5369 5368 5367 5366 5365 5363 5362 5361 5360 5359 5356 5353 5349
5377 5374 5372 5370 5367 5365 5362 5361 5358 5356 5354 5353 5351 5350 5349 5349 5349 5348 5347 5347 5346 5346 5346 5346 5347 5347 5348 5348 5349 5350 5351 5352 5353 5354 5355 5356 5357 5358 5358 5359 5359 5358 5358 5357 5355 5354 5354 5353 5352 5351 5350 5347 5343 5339
5371 5368 5366 5363 5360 5357 5354 5351 5348 5345 5343 5339 5337 5335 5334 5332 5333 5330 5332 5333 5334 5334 5334 5334 5334 5335 5336 5337 5338 5339 5340 5342 5343 5344 5346 5347 5348 5349 5348 5348 5348 5348 5347 5346 5346 5346 5345 5345 5344 5342 5340 5337 5334 5329
5362 5359 5357 5354 5351 5347 5344 5341 5338 5334 5331 5327 5323 5320 5317 5315 5311 5310 5312 5313 5315 5317 5319 5320 5321 5322 5323 5325 5326 5327 5328 5330 5332 5334 5335 5337 5337 5337 5337 5337 5337 5337 5337 5337 5337 5337 5337 5336 5334 5333 5331 5327 5323 5319
5351 5348 5346 5343 5340 5336 5333 5330 5326 5322 5318 5313 5308 5303 5300 5295 5293 5290 5291 5293 5293 5296 5300 5303 5305 5307 5309 5311 5312 5314 5317 5318 5320 5322 5323 5324 5324 5326 5326 5326 5326 5327 5328 5328 5329 5328 5328 5327 5325 5323 5321 5317 5314 5310
5341 5337 5334 5331 5328 5324 5319 5317 5314 5310 5304 5299 5293 5286 5280 5275 5272 5269 5272 5272 5274 5276 5279 5284 5287 5290 5293 5296 5298 5301 5303 5305 5306 5309 5310 5311 5313 5313 5314 5315 5317 5317 5319 5319 5319 5318 5318 5317 5315 5313 5310 5307 5304 5300
5331 5326 5322 5319 5316 5311 5306 5303 5300 5297 5292 5285 5278 5271 5264 5257 5253 5252 5253 5254 5255 5257 5260 5265 5270 5274 5278 5281 5284 5287 5289 5292 5294 5295 5297 5299 5300 5302 5303 5305 5306 5308 5309 5310 5310 5309 5308 5307 5305 5302 5300 5297 5294 5290